DELTA 1 DEB, 42564

Orbit data source: Space-Track

DELTA 1 DEB, 42564 is space debris in SSO originally from a launch on Sun, 23 Jul 1972 UTC launched from the Air Force Western Test Range (AFWTR). Debris objects in space refer to the collection of defunct objects orbiting the Earth. Examples of debris include non-operational satellites, rocket bodies, and fragments generated from explosions, collisions, or faulty payload assembly.

Loading next visibility...
Identifier
42564, 1972-058JX
Orbit
SSO
Country
Flag of USUS
Related business
Manufacturer
Unknown
Mission
Spacecraft
Bus & Motor
Unknown
Mass
Unknown
Launch date (UTC)
1972-07-23 (53 years ago)
Launch vehicle
Unknown
Launch site
Air Force Western Test Range (AFWTR)
Object type
Payload
Rocket body
Debris
Shape & HBR
Unknown shape, 0.1 m
Radar Cross Section
Small (<0.1 m²)

Expand to show TLE details & history
Last TLE update: 2 days ago

TLE from 2 days ago
0 DELTA 1 DEB
1 42564U 72058JX  25298.37892032  .00015871  00000-0  59962-2 0  9998
2 42564  99.0258 255.2377 0055348  88.9109  61.9806 14.30493695608476
Epoch: 2025-10-25T09:05Z
TLE epoch observation values (Epoch: 2025-10-25T09:05:38.715Z)
Latitude
28.20638°
Longitude
-90.32279°
Altitude
775.08 km
Speed
7.479 km/s
True Right ascension
05h 20m 23s
True Declination
28° 03' 49"
Sunlit
Object was in full shadow at epoch
Visualization orbit readout
Latitude
Unknown
Longitude
Unknown
Altitude
Unknown
Speed
Unknown
Apparent Right ascension
Unknown
Apparent Declination
Unknown
Sunlit
N/A
Visualization observer readout
Local Sidereal Time
00:16:11
Azimuth
Unknown
Elevation
Unknown
Doppler factor
Unknown
Orbital elements
Apogee altitude
826.9 km
Perigee altitude
747.582 km
Semi-major axis
7,165.378 km
Eccentricity
0.00553
Inclination
99.0258°
RAAN
255.2377°
Arg. of periapsis
88.9109°
True anomaly
62.54232°
Mean anomaly
61.9806°
Eccentric anomaly
62.26128°
Mean motion
3.57836 °/min
Orbital period
100.6 mins
BSTAR
0.0059962
Loading maneuver chart data...
Computing Atmospheric mass density...
Loading historical data...
Loading historical data...
Loading historical data...
Loading historical data...
Loading historical data...
Loading historical data...
Loading historical data...

Documentation

Showing up to 5 results
|